Nashua, NH

3:30 PM EDT on October 22, 2017 (GMT -0400)
Boire

Weather History for KASH - October, 2013

Change the Weather History Date:

Sunday, October 6, 2013

  Actual Average Record
Temperature  
Mean Temperature 54 °F -  
Max Temperature 59 °F 64 °F 83 °F (1990)
Min Temperature 50 °F 39 °F 22 °F (1965)
Degree Days  
Heating Degree Days 10    
Growing Degree Days 4 (Base 50)    
Moisture  
Dew Point 53 °F    
Average Humidity 96    
Maximum Humidity 100    
Minimum Humidity 83    
Precipitation  
Precipitation 0.24 in - - ()
Sea Level Pressure  
Sea Level Pressure 30.55 in    
Wind  
Wind Speed 2 mph (NE)    
Max Wind Speed 10 mph    
Max Gust Speed -    
Visibility 4 miles    
Events Rain    
Averages and records for this station are not official NWS values.
T = Trace of Precipitation, MM = Missing Value Source: NWS Daily Summary

Daily Weather History Graph

Daily Weather History Graph

Search for Another Location

Airport or City:

Trip Planner

Search our weather history database for the weather conditions in past years. The results will help you decide how hot, cold, wet, or windy it might be!

Date:

Astronomy

Oct. 06, 2013 Rise Set
Actual Time 6:49 AM EDT 6:18 PM EDT
Civil Twilight 6:20 AM EDT 6:46 PM EDT
Nautical Twilight 5:48 AM EDT 7:19 PM EDT
Astronomical Twilight 5:15 AM EDT 7:52 PM EDT
Moon 8:33 AM EDT (10/6) 7:11 PM EDT (10/6)
Length of Visible Light 12h 25m
Length of Day
11h 29m
Waxing Crescent, 3% of the Moon is Illuminated
Oct 6
Waxing Crescent
Oct 11
First Quarter
Oct 18
Full
Oct 26
Last Quarter
Nov 3
New

Hourly Weather History & Observations

Time (EDT) Temp. Dew Point Humidity Pressure Visibility Wind Dir Wind Speed Gust Speed Precip Events Conditions
12:51 AM 59.9 °F 54.9 °F 83% 30.88 in 10.0 mi Calm Calm - N/A   Overcast
1:51 AM 59.9 °F 57.9 °F 93% 30.88 in 10.0 mi Calm Calm - 0.01 in   Overcast
2:14 AM 59.0 °F 57.2 °F 94% 30.14 in 10.0 mi Calm Calm - N/A   Overcast
2:51 AM 59.0 °F 57.9 °F 96% 30.87 in 10.0 mi Calm Calm - N/A   Overcast
3:51 AM 59.0 °F 56.8 °F 93% 30.87 in 10.0 mi Calm Calm - N/A   Overcast
4:15 AM 59.0 °F 57.2 °F 94% 30.15 in 10.0 mi NE 3.5 mph - N/A   Overcast
4:32 AM 57.2 °F 57.2 °F 100% 30.15 in 10.0 mi Calm Calm - 0.00 in Rain Light Rain
4:51 AM 57.9 °F 55.9 °F 93% 30.89 in 10.0 mi Calm Calm - 0.00 in   Mostly Cloudy
5:51 AM 57.9 °F 54.9 °F 90% 30.91 in 10.0 mi ENE 3.5 mph - 0.00 in   Mostly Cloudy
6:04 AM 57.2 °F 53.6 °F 88% 30.18 in 10.0 mi NE 3.5 mph - N/A   Overcast
6:51 AM 56.8 °F 54.0 °F 90% 30.94 in 4.0 mi Calm Calm - 0.02 in Rain Light Rain
7:11 AM 55.4 °F 53.6 °F 94% 30.21 in 3.0 mi Variable 4.6 mph - 0.02 in Rain Light Rain
7:35 AM 55.4 °F 53.6 °F 94% 30.21 in 2.0 mi NE 8.1 mph - 0.07 in Rain Rain
7:44 AM 53.6 °F 53.6 °F 100% 30.22 in 1.8 mi Calm Calm - 0.11 in Rain Heavy Rain
7:51 AM 54.0 °F 52.9 °F 96% 30.96 in 1.8 mi NE 5.8 mph - 0.13 in Rain Rain
7:56 AM 53.6 °F 53.6 °F 100% 30.22 in 3.0 mi NE 4.6 mph - 0.00 in Rain Light Rain
8:05 AM 53.6 °F 53.6 °F 100% 30.23 in 6.0 mi NE 4.6 mph - 0.00 in Rain Light Rain
8:51 AM 54.0 °F 52.0 °F 93% 30.98 in 4.0 mi NNE 4.6 mph - 0.01 in Rain Light Rain
9:05 AM 53.6 °F 51.8 °F 94% 30.24 in 3.0 mi NNE 3.5 mph - 0.00 in Rain Light Rain
9:12 AM 53.6 °F 51.8 °F 94% 30.25 in 2.5 mi Calm Calm - 0.01 in Rain Light Rain
9:20 AM 53.6 °F 51.8 °F 94% 30.25 in 1.8 mi NE 6.9 mph - 0.01 in Rain Rain
9:29 AM 53.6 °F 51.8 °F 94% 30.25 in 2.0 mi NE 5.8 mph - 0.02 in Rain Light Rain
9:38 AM 51.8 °F 50.0 °F 94% 30.26 in 1.5 mi ENE 10.4 mph - 0.03 in Rain Light Rain
9:51 AM 52.0 °F 50.0 °F 93% 31.00 in 4.0 mi East 8.1 mph - 0.03 in Rain Light Rain
10:51 AM 52.0 °F 50.0 °F 93% 31.00 in 10.0 mi Variable 3.5 mph - 0.00 in   Overcast
11:20 AM 51.8 °F 50.0 °F 94% 30.25 in 5.0 mi NNE 5.8 mph - N/A   Overcast
11:43 AM 51.8 °F 50.0 °F 94% 30.25 in 4.0 mi Calm Calm - N/A   Overcast
11:51 AM 52.0 °F 50.9 °F 96% 30.99 in 5.0 mi Calm Calm - N/A   Overcast
12:51 PM 52.0 °F 50.9 °F 96% 30.98 in 10.0 mi Calm Calm - N/A   Overcast
1:07 PM 51.8 °F 51.8 °F 100% 30.23 in 1.0 mi NNE 5.8 mph - N/A   Overcast
1:51 PM 52.0 °F 50.9 °F 96% 30.97 in 0.8 mi NE 3.5 mph - 0.01 in Rain Light Rain
2:51 PM 50.9 °F 50.9 °F 100% 30.97 in 2.0 mi NNE 4.6 mph - 0.00 in   Overcast
3:51 PM 50.9 °F 50.9 °F 100% 30.96 in 4.0 mi Calm Calm - 0.00 in Rain Light Rain
4:03 PM 51.8 °F 51.8 °F 100% 30.21 in 3.0 mi Calm Calm - 0.01 in   Overcast
4:51 PM 50.9 °F 50.9 °F 100% 30.95 in 3.0 mi NNE 3.5 mph - 0.01 in   Overcast
5:51 PM 52.0 °F 50.9 °F 96% 30.95 in 3.0 mi Variable 3.5 mph - N/A   Mostly Cloudy
6:51 PM 52.0 °F 52.0 °F 100% 30.95 in 5.0 mi Calm Calm - N/A   Mostly Cloudy
7:51 PM 52.9 °F 52.9 °F 100% 30.95 in 6.0 mi Calm Calm - N/A   Mostly Cloudy
8:24 PM 53.6 °F 53.6 °F 100% 30.20 in 7.0 mi Calm Calm - N/A   Overcast
8:51 PM 54.0 °F 54.0 °F 100% 30.94 in 2.0 mi Calm Calm - N/A   Mostly Cloudy
9:06 PM 55.4 °F 53.6 °F 94% 30.19 in 2.0 mi ESE 5.8 mph - N/A   Mostly Cloudy
9:13 PM 53.6 °F 53.6 °F 100% 30.19 in 3.0 mi ESE 5.8 mph - N/A   Mostly Cloudy
9:23 PM 55.4 °F 53.6 °F 94% 30.19 in 3.0 mi Calm Calm - N/A   Overcast
9:51 PM 54.0 °F 54.0 °F 100% 30.93 in 2.0 mi Calm Calm - N/A   Mostly Cloudy
9:59 PM 55.4 °F 53.6 °F 94% 30.19 in 1.5 mi Calm Calm - N/A   Mostly Cloudy
10:09 PM 53.6 °F 53.6 °F 100% 30.19 in 1.5 mi Calm Calm - N/A   Mostly Cloudy
10:22 PM 55.4 °F 53.6 °F 94% 30.18 in 1.2 mi Calm Calm - 0.01 in   Mostly Cloudy
10:29 PM 55.4 °F 53.6 °F 94% 30.18 in 1.2 mi Calm Calm - 0.01 in   Mostly Cloudy
10:42 PM 55.4 °F 53.6 °F 94% 30.18 in 1.5 mi Calm Calm - 0.01 in   Mostly Cloudy
10:51 PM 54.9 °F 54.0 °F 97% 30.92 in 1.5 mi Calm Calm - 0.01 in   Mostly Cloudy
11:51 PM 54.9 °F 54.9 °F 100% 30.90 in 1.5 mi Calm Calm - 0.01 in   Mostly Cloudy